Temp
7 7 7 7 7 7 8 8 7 7 7 7 7 7 7 8 7 8 8 8 8 8 8 8 8 8 8 8 8 8 8 9 11 10 10 16 20 21 21 22 22 22 21 20 21 21 21 22 21 22 22 22 23 23 24 24 24 24 24 23 22 22 23 25 26 27 27 28 29 31 30 31 29 26 27 26 25 25 24 24 24 24 24 24 23 22 21 21
7 7 7 7 7 7 7 7 7 7 7 7 7 7 7 7 7 8 8 8 8 8 8 8 8 8 8 8 8 8 8 9 9 9 13 20 20 20 21 22 22 22 20 20 21 20 21 22 22 21 22 23 23 23 24 25 25 25 24 23 22 23 25 26 27 27 28 27 28 30 30 31 30 27 27 26 24 24 24 23 23 23 23 23 22 22 21 21
7 7 7 7 7 7 7 7 7 7 7 7 7 7 7 7 7 7 8 8 8 8 8 7 8 8 8 8 8 8 8 8 10 13 19 22 21 21 22 22 22 22 20 21 22 22 21 22 22 22 22 22 23 23 24 25 25 25 24 23 23 25 25 26 27 27 28 28 28 29 30 31 31 29 28 25 24 24 23 23 23 22 22 22 22 21 21 21
7 7 7 7 7 7 7 7 7 7 7 7 7 7 7 7 7 7 7 8 8 8 8 7 7 7 8 8 8 8 7 10 15 19 22 22 22 23 22 22 22 21 21 21 22 22 22 22 21 22 22 22 23 23 23 24 25 25 25 24 24 26 26 26 27 28 28 28 28 29 30 30 31 29 27 25 25 24 23 23 23 23 22 22 21 21 21 21
7 7 7 7 7 7 7 7 7 7 7 7 7 7 7 7 7 7 7 7 7 8 7 8 7 7 8 7 8 8 8 14 20 21 22 22 22 23 22 22 22 21 21 21 22 22 22 21 21 21 22 22 22 23 23 24 25 25 25 25 25 26 26 27 28 28 28 29 28 29 30 29 30 29 26 26 26 24 24 24 24 23 23 22 22 22 21 21
7 7 7 7 7 7 7 7 7 7 7 7 7 7 7 7 7 7 7 7 7 7 7 7 7 7 7 7 8 7 10 18 20 20 22 22 22 22 22 22 21 21 21 21 22 21 21 21 21 21 22 22 22 23 24 25 25 24 25 25 26 26 26 27 28 28 28 29 29 29 29 29 30 28 27 28 27 26 25 25 24 23 23 22 22 22 21 21
7 7 7 7 7 7 7 7 7 7 7 7 7 7 7 7 7 7 7 7 7 7 7 7 7 7 7 7 8 8 9 15 19 20 21 21 22 22 22 22 20 20 21 21 20 21 21 21 21 21 21 22 22 23 24 25 25 24 24 25 26 26 26 27 27 28 28 29 29 29 29 29 29 28 26 27 27 26 25 24 24 23 23 23 22 21 21 21
7 7 7 7 7 7 7 6 7 6 7 7 7 7 7 7 7 7 7 7 7 7 7 7 7 7 7 7 8 8 8 13 20 21 20 20 21 22 22 21 20 20 21 20 20 20 20 20 21 21 21 22 23 24 24 24 25 24 24 25 26 27 27 27 27 28 28 29 30 30 30 29 28 28 26 25 25 24 24 24 24 23 23 22 22 22 21 21
7 6 6 6 6 6 6 6 6 6 7 7 7 7 7 7 7 7 7 7 7 7 7 7 7 7 7 7 7 8 10 16 21 20 18 19 19 20 21 20 20 20 20 20 20 20 20 20 21 21 22 22 23 23 24 24 24 25 25 26 26 27 28 28 28 28 28 29 31 30 30 29 28 27 25 24 25 24 24 24 23 23 22 22 22 22 22 21
6 6 6 6 6 6 6 6 6 6 6 6 7 7 7 7 7 7 7 7 7 6 7 7 7 7 7 8 8 9 13 17 19 18 17 18 18 19 20 20 20 20 19 19 19 19 20 21 21 22 22 22 23 24 24 24 24 26 26 26 26 27 28 28 28 28 28 29 30 30 30 30 29 28 25 24 25 24 24 24 23 23 22 22 22 22 22 21
7 6 6 6 6 6 6 6 6 6 6 6 6 6 6 6 6 7 6 7 7 6 7 7 7 7 7 8 7 9 15 17 17 17 17 18 18 18 19 20 20 20 19 19 19 19 20 21 21 22 22 23 24 24 24 24 25 26 26 26 26 26 27 27 27 28 28 28 29 30 30 29 29 28 25 24 25 24 24 23 23 23 23 23 22 22 22 21
7 6 6 6 6 6 6 6 6 6 6 6 6 6 6 6 6 6 6 6 6 6 6 7 7 7 7 7 6 10 16 17 17 17 17 17 17 18 18 19 20 21 20 19 19 20 20 21 21 22 22 23 23 23 24 25 26 26 26 25 25 26 26 27 27 27 28 29 29 29 28 27 29 27 25 25 25 24 24 24 23 23 23 23 22 22 22 21
7 7 6 6 6 6 6 6 6 6 6 6 6 6 6 6 6 6 6 6 6 7 6 6 7 7 7 6 8 11 14 16 17 16 17 17 17 18 19 18 19 20 21 21 20 21 21 21 21 21 22 22 22 24 25 26 26 26 26 25 25 25 25 27 28 27 28 29 29 28 25 25 28 27 25 25 25 24 24 24 23 23 23 23 22 22 21 21
7 7 6 6 6 6 6 6 6 6 6 6 6 6 6 6 6 6 6 6 6 6 6 7 7 7 7 6 9 12 14 15 14 14 17 17 16 17 19 19 20 20 21 21 22 22 22 22 22 21 22 22 22 24 24 24 25 25 25 25 24 23 24 27 28 27 28 28 29 28 23 25 29 27 25 25 24 24 23 23 23 23 23 23 22 22 21 21
7 7 6 6 6 6 6 6 6 6 5 6 6 6 6 6 6 6 6 6 6 6 7 7 6 7 6 7 10 13 14 13 12 14 17 16 15 16 18 20 20 20 21 21 22 22 23 22 22 21 22 23 23 22 22 23 24 24 23 22 23 22 23 27 28 27 28 27 28 27 24 25 28 26 25 25 24 24 23 23 23 23 23 23 22 22 21 21
7 7 7 6 6 6 6 6 6 6 6 6 6 6 6 6 6 6 6 7 7 7 6 6 7 7 6 8 12 14 14 13 14 17 18 17 15 16 18 19 19 20 21 22 22 23 23 23 22 22 22 22 22 22 22 22 22 23 22 21 22 22 23 25 27 28 28 28 27 27 25 25 27 26 25 25 25 24 24 23 23 23 23 23 23 22 21 21
7 7 7 6 6 6 6 6 6 6 6 5 5 5 5 6 6 7 7 7 7 7 6 7 7 7 7 10 12 14 14 15 16 17 17 17 17 17 18 18 19 21 22 22 23 23 23 22 22 22 22 22 22 22 21 20 20 21 22 21 22 23 23 23 26 27 28 27 27 27 26 27 28 26 25 26 25 24 23 23 23 23 23 23 23 22 21 20
6 6 6 6 6 6 6 6 6 6 5 5 5 5 5 7 7 7 7 8 7 7 7 7 7 8 10 11 11 13 15 16 16 17 17 18 18 18 18 18 19 21 21 22 22 22 22 22 22 21 21 21 21 21 20 19 20 20 21 21 22 23 23 23 25 27 27 27 27 26 26 27 28 27 25 26 26 24 23 23 23 23 23 23 22 22 21 20
6 6 6 6 6 6 6 6 6 6 5 5 5 5 7 8 8 7 7 7 7 7 8 8 7 10 14 13 12 14 15 16 17 17 18 18 18 18 18 18 19 19 20 20 20 21 21 21 21 20 20 20 20 21 20 21 22 21 21 22 22 22 23 23 25 27 27 27 26 26 25 26 27 27 26 26 26 24 23 23 23 23 23 23 22 22 21 20
6 6 6 6 6 6 6 6 6 6 5 5 5 5 7 9 9 8 7 7 7 9 11 9 8 11 13 13 15 15 15 16 17 17 18 19 19 18 18 19 19 19 19 19 20 21 21 20 19 19 19 20 21 21 21 22 23 23 22 22 22 22 22 24 25 26 27 26 26 26 26 26 27 27 27 27 26 24 23 23 23 23 23 22 22 21 21 20
6 6 6 6 6 6 6 6 6 6 5 5 4 5 6 8 9 9 8 8 8 9 11 10 9 10 12 14 15 15 14 15 16 17 18 19 19 19 18 19 18 18 18 19 20 21 21 19 18 19 20 21 21 21 22 23 23 23 22 22 22 22 22 24 26 26 27 26 25 26 25 25 27 27 27 27 25 24 24 23 23 23 23 22 21 21 20 20
6 6 6 6 6 6 6 6 6 6 5 5 4 4 5 7 10 10 9 8 9 10 10 10 10 10 12 13 13 14 13 13 14 16 18 19 19 18 18 18 17 17 18 19 19 19 19 18 19 20 21 22 22 22 22 23 22 22 22 21 21 22 23 24 25 26 27 25 25 26 25 25 26 26 26 27 26 24 24 24 23 23 23 22 21 20 20 20
6 6 6 6 6 6 6 6 6 6 6 5 4 4 7 9 10 9 9 8 9 11 11 10 10 10 11 12 13 14 13 13 14 15 18 19 18 19 18 18 17 17 18 18 18 18 17 18 20 21 21 22 22 22 22 22 22 21 21 21 21 22 22 22 24 26 26 26 26 26 25 24 26 25 26 27 26 25 25 24 24 23 23 22 21 21 20 20
6 6 6 6 6 6 6 6 6 6 6 6 5 7 9 10 10 8 8 8 9 12 12 12 11 11 11 13 14 14 13 14 15 16 18 19 18 19 19 18 18 17 18 18 18 18 18 20 21 21 21 22 21 21 22 21 21 21 21 20 21 22 22 22 24 26 26 26 26 25 23 23 25 25 26 27 26 25 25 24 24 24 23 22 21 20 20 20
6 6 6 6 6 6 6 5 6 6 6 6 7 9 10 9 10 8 7 8 9 11 13 13 13 12 13 14 14 14 14 15 15 17 19 19 19 18 19 19 18 17 18 18 19 18 19 21 21 21 21 21 21 21 21 21 21 21 21 21 21 22 23 23 24 25 23 22 25 25 21 21 24 25 27 27 25 25 25 24 24 23 22 21 20 20 20 20
6 6 6 6 6 6 5 5 6 6 6 7 9 10 9 10 11 9 8 8 9 11 13 13 13 14 15 14 14 15 14 14 17 18 19 20 20 20 19 19 19 18 18 19 19 19 20 21 21 21 21 21 21 21 21 21 20 20 21 22 22 23 23 23 24 23 21 21 24 25 22 21 23 24 27 27 25 24 24 23 23 22 21 21 20 20 20 20
6 6 6 6 6 5 5 5 6 5 6 8 9 9 9 10 11 10 9 8 9 12 13 13 14 16 16 15 15 15 14 16 18 18 19 20 21 20 19 18 19 19 20 20 19 19 21 21 21 21 21 21 20 21 21 21 20 20 22 23 23 23 23 23 24 22 22 22 24 25 24 22 21 24 26 25 24 24 23 22 22 22 21 20 20 20 20 19
5 6 6 6 6 5 5 5 5 5 6 8 8 8 9 10 10 11 9 8 12 15 14 13 15 17 16 16 16 15 15 17 18 18 20 21 21 20 19 18 19 19 20 20 18 19 21 20 20 21 21 20 20 21 22 22 21 21 23 24 24 24 24 24 24 23 23 23 22 23 23 22 21 23 24 23 23 22 21 21 21 21 20 20 20 19 19 19
5 5 5 6 6 5 5 5 4 6 7 8 7 8 9 10 11 11 9 10 14 17 16 16 16 17 16 16 16 16 16 17 18 19 20 21 21 21 19 19 20 19 20 20 19 20 22 21 21 21 21 21 21 22 23 22 22 23 24 25 24 24 24 25 24 22 22 21 21 22 23 22 21 22 23 22 22 21 20 21 21 20 20 20 19 19 19 19
5 5 5 5 5 5 5 5 5 7 7 7 7 8 10 10 10 9 8 11 15 17 17 16 16 17 16 15 15 16 16 17 18 20 20 20 21 21 21 21 21 20 20 20 20 21 22 22 22 22 21 22 22 22 23 23 23 24 25 24 24 24 24 25 23 22 22 21 21 22 22 22 21 21 22 22 21 21 20 20 20 20 19 19 19 19 19 19
5 5 5 5 5 5 5 5 6 7 7 7 7 8 10 10 9 8 10 14 16 16 16 16 16 17 15 15 15 15 16 17 18 19 19 20 20 20 20 20 20 19 19 19 20 20 21 22 22 23 23 23 23 22 23 23 24 24 24 23 22 22 22 22 22 21 21 20 21 22 22 22 21 22 22 20 20 21 21 20 19 19 19 19 19 18 18 18
5 5 5 5 5 5 5 5 7 7 7 7 6 8 10 9 8 8 11 14 15 15 16 17 17 17 15 16 16 15 16 16 17 18 18 19 18 18 19 19 18 18 17 18 19 19 20 21 22 23 24 24 23 22 22 23 23 23 23 22 21 21 21 21 20 21 21 20 22 23 23 22 21 20 19 18 19 21 21 20 19 19 19 18 18 18 18 17
5 5 5 5 5 5 5 6 6 6 6 6 6 8 9 8 8 10 11 13 14 15 16 16 17 17 16 16 16 16 16 16 17 18 18 19 18 18 18 19 19 18 17 18 18 19 19 20 22 22 23 24 23 22 21 22 22 22 22 21 20 20 20 20 20 20 21 21 22 23 22 21 20 19 18 17 19 21 21 20 19 18 18 18 18 18 17 17
5 5 5 5 5 5 6 6 6 6 6 6 7 8 8 7 9 11 12 13 14 16 16 15 16 17 17 16 16 17 16 16 17 18 18 18 18 18 18 18 19 19 19 18 18 18 18 19 20 21 22 24 24 23 22 22 22 22 23 22 21 21 21 20 20 20 21 21 21 22 21 20 20 19 18 17 19 20 19 19 18 18 18 18 17 17 17 17
4 4 5 5 5 6 6 6 6 6 5 5 7 8 7 7 9 11 12 13 13 15 15 15 16 16 16 16 17 17 17 17 17 18 18 18 17 17 18 18 19 19 19 18 18 19 18 19 21 22 23 24 24 24 24 23 22 22 23 22 21 21 22 21 20 21 21 21 21 20 19 18 18 18 17 17 18 19 18 17 17 17 17 17 17 17 17 16
4 4 4 4 5 6 7 6 6 5 5 5 6 7 7 8 10 11 12 12 13 14 14 14 15 16 16 17 17 18 18 18 17 17 18 18 18 18 18 19 19 19 19 18 18 19 19 19 22 23 23 24 24 24 25 24 23 22 22 22 21 23 23 21 20 20 21 21 20 18 18 18 18 18 17 17 18 18 17 17 17 17 17 17 16 16 16 16
4 4 5 5 6 7 7 7 6 5 5 5 6 7 8 9 10 11 12 12 13 14 13 12 14 15 15 16 17 17 18 18 17 17 17 18 18 18 19 19 20 20 19 19 20 20 20 20 22 23 23 23 24 25 25 25 24 23 21 22 23 23 23 22 21 20 21 21 19 17 18 19 19 19 18 18 18 18 17 17 17 17 16 16 16 16 16 16
4 4 5 6 6 7 7 7 6 5 6 6 6 7 8 10 11 11 12 12 12 13 13 12 13 14 14 14 15 16 17 17 17 17 17 18 18 19 19 20 20 20 20 20 20 20 20 20 21 22 23 24 24 24 24 24 25 24 23 24 23 22 22 22 21 20 21 20 19 17 18 19 19 19 18 18 18 17 17 17 17 17 16 16 16 15 15 15
4 4 5 6 7 7 7 7 7 6 6 6 6 7 9 9 11 12 12 12 12 13 12 12 13 13 13 14 14 15 17 17 17 17 17 17 18 19 20 20 20 20 21 20 20 19 20 19 20 22 22 23 24 23 22 22 24 24 24 24 24 22 22 21 21 21 20 20 19 18 18 19 19 19 18 18 18 17 17 17 16 16 15 15 15 15 15 15
4 4 5 7 7 7 7 7 7 6 6 6 7 8 9 10 11 12 13 13 13 13 13 13 13 13 13 14 14 15 16 17 17 17 18 18 18 18 19 20 20 20 21 21 20 20 19 19 20 21 21 22 22 22 22 22 23 23 23 23 23 23 22 22 21 21 21 21 20 18 18 18 19 19 19 18 17 17 17 16 16 15 15 15 15 15 15 15
4 4 6 7 7 7 8 7 6 6 6 7 7 8 9 10 11 12 13 14 14 14 15 14 14 14 13 14 14 15 16 16 17 17 18 18 18 18 19 20 21 21 20 20 20 20 20 19 19 20 21 21 21 21 22 22 22 23 22 22 22 22 22 21 21 21 21 21 20 19 19 18 18 18 19 18 17 17 16 16 15 15 15 15 15 15 15 15
5 5 6 7 7 7 7 6 6 7 7 7 8 9 10 11 11 12 13 13 14 15 15 15 16 15 14 14 14 14 15 16 17 17 18 18 19 19 20 21 21 21 20 20 20 21 21 20 19 20 20 20 20 21 22 22 22 23 23 23 23 23 22 21 20 21 21 21 19 19 20 19 17 17 18 18 17 16 16 15 15 15 15 15 15 15 15 15
4 5 6 7 6 6 6 6 6 7 7 8 9 10 10 11 11 12 12 13 14 14 15 16 17 16 15 14 14 14 15 16 17 18 18 18 19 20 20 21 21 21 20 20 20 21 21 20 19 20 20 20 22 22 23 23 23 23 23 23 23 23 23 22 22 22 21 21 20 20 20 19 16 16 17 17 16 16 15 15 15 14 14 15 15 15 15 16
4 5 6 6 6 6 6 6 7 7 7 9 9 10 11 11 11 12 12 13 14 14 15 16 17 16 15 15 15 15 15 16 17 18 18 18 19 20 20 20 22 22 21 20 20 21 20 19 19 19 19 20 21 22 22 23 23 22 23 24 24 24 24 23 22 22 21 20 21 21 20 18 16 16 16 16 16 15 15 15 15 14 14 15 15 15 15 16
4 5 6 6 6 6 6 6 7 7 8 8 8 9 10 11 12 13 13 13 14 14 15 16 18 17 16 15 15 15 16 16 16 17 18 18 19 20 19 20 21 22 21 21 21 21 20 19 19 19 18 18 19 20 20 21 21 22 23 23 24 24 24 22 21 21 21 20 20 20 19 17 16 16 15 15 15 15 15 15 15 15 15 15 15 15 15 15
4 5 6 6 6 6 6 6 6 6 7 8 8 9 10 11 12 14 14 14 15 15 15 16 18 18 16 15 15 15 16 16 16 16 17 18 18 19 19 20 21 21 21 22 21 21 20 19 19 20 19 19 19 19 19 20 20 20 20 22 22 23 23 22 21 21 21 20 19 18 17 17 16 16 16 15 15 15 14 14 14 15 15 15 15 15 15 15
5 5 5 5 6 6 6 7 7 7 7 8 8 10 10 10 12 13 14 15 15 16 16 16 17 17 16 16 15 15 15 15 16 16 17 18 18 18 19 20 20 21 21 21 21 20 20 19 19 20 20 19 19 18 18 19 19 18 18 20 21 22 22 21 21 21 20 20 19 17 17 17 16 16 16 15 15 14 14 14 14 14 15 15 14 15 15 15
5 5 5 5 5 6 6 7 7 7 8 8 9 9 10 10 11 12 14 15 15 16 16 16 16 16 15 16 15 15 15 15 15 16 16 17 17 18 19 20 20 20 21 21 20 20 20 19 18 19 19 18 18 18 18 19 18 17 17 18 19 21 22 21 21 21 21 21 19 17 17 17 16 16 15 15 15 14 14 14 15 14 15 14 14 15 15 15
5 4 5 5 5 6 6 6 7 7 8 8 9 9 10 10 10 12 13 14 14 15 15 15 15 15 15 15 15 15 15 15 15 16 16 16 16 17 17 18 18 19 20 21 20 19 19 18 17 18 18 16 16 17 17 18 17 17 17 17 17 19 21 22 20 20 21 21 19 17 17 17 16 15 15 15 15 14 14 14 15 14 14 14 14 14 14 14
4 4 5 5 5 5 5 6 7 7 8 9 9 10 10 10 11 11 12 14 14 14 15 15 14 14 15 15 15 15 15 15 15 16 16 16 16 16 16 16 16 17 19 20 19 19 19 17 16 18 18 16 15 16 16 16 17 17 17 17 17 18 19 20 19 18 18 19 17 17 16 16 15 15 15 14 14 14 14 14 14 14 14 14 14 14 14 14
5 5 5 5 5 6 6 7 8 8 8 9 9 10 10 10 11 10 11 13 14 14 14 14 14 14 14 14 14 15 15 15 16 17 17 17 16 16 16 16 15 16 18 19 19 19 19 17 16 18 18 16 15 16 16 17 17 17 17 17 17 17 18 18 18 18 17 17 16 16 16 15 15 14 14 14 14 14 14 14 14 14 14 14 14 14 13 13
5 5 6 5 5 6 7 7 8 8 9 9 9 10 10 10 11 11 11 13 14 14 13 13 13 14 14 14 14 15 15 15 15 16 16 16 15 15 16 16 16 16 17 18 18 17 18 18 17 17 17 15 14 15 17 17 18 18 17 15 15 16 16 17 17 17 17 17 16 16 16 15 14 14 14 14 13 13 13 14 14 14 14 14 14 13 13 12
Height
823 822 821 820 819 818 816 815 814 813 812 810 809 808 807 806 804 803 802 801 800 799 797 796 795 794 792 790 789 786 783 780 776 776 773 762 761 765 765 764 765 766 767 767 767 767 767 767 766 766 768 768 769 768 766 765 765 771 778 785 789 786 780 771 767 765 762 759 750 742 739 741 746 744 738 739 743 745 750 751 750 750 750 753 758 761 765 769
822 821 820 819 818 817 816 814 813 812 811 809 808 807 806 805 803 802 801 800 799 798 797 795 794 793 791 790 788 786 782 778 776 772 762 757 761 763 762 763 763 765 765 765 765 766 767 767 766 767 769 770 769 766 766 764 763 770 777 782 783 777 769 762 761 760 758 759 753 744 741 740 742 743 738 747 756 749 755 761 756 758 760 760 762 765 769 770
821 821 819 818 817 816 815 813 812 811 809 808 807 806 805 803 802 801 800 799 798 797 796 795 793 792 791 789 787 785 782 778 774 764 753 753 758 757 758 761 761 763 763 764 764 765 766 765 766 768 770 771 768 766 768 765 764 767 772 780 776 767 763 759 757 756 754 753 753 747 740 739 738 737 738 748 757 753 757 762 760 764 765 765 765 766 769 771
821 820 818 817 816 815 813 812 811 809 808 807 805 805 804 802 801 800 799 798 797 796 795 794 793 791 790 788 787 784 783 778 766 753 749 750 751 751 754 757 759 761 762 763 764 764 764 765 767 768 771 773 768 767 768 765 765 765 767 774 769 762 762 758 754 753 751 749 750 746 740 741 736 734 740 747 757 762 758 752 752 758 760 762 765 765 769 771
820 819 817 816 815 813 812 811 809 808 807 806 804 803 802 801 800 799 798 797 796 795 794 793 792 790 789 788 786 784 784 775 757 747 748 748 747 747 750 754 757 759 760 762 763 763 764 765 767 769 771 772 770 768 768 762 762 765 763 764 761 760 761 755 751 752 749 746 746 745 743 743 737 737 743 744 754 759 751 744 743 746 751 756 760 764 768 770
819 817 817 815 814 813 811 810 808 807 806 804 803 802 801 800 799 798 797 796 795 794 793 792 791 790 788 787 785 785 782 767 750 748 748 747 747 745 747 752 755 758 760 762 761 762 763 764 767 770 770 770 770 769 765 759 760 767 763 759 757 756 758 752 749 749 748 747 747 745 742 740 741 745 744 742 745 745 742 742 742 743 748 752 756 762 766 770
818 816 815 814 813 811 809 808 807 805 804 803 802 801 800 799 798 797 796 795 794 793 793 791 790 789 787 786 783 783 783 765 748 749 748 747 749 747 748 751 754 757 758 760 760 762 763 765 767 768 770 770 768 765 762 759 759 766 765 758 755 753 753 750 748 748 748 748 745 741 739 740 745 747 745 744 741 738 741 745 745 747 750 753 758 762 766 769
816 815 814 813 811 810 808 807 805 804 803 802 801 799 798 797 797 796 795 795 793 792 792 790 790 789 787 786 783 785 783 763 747 749 750 749 750 749 750 751 754 756 756 758 758 761 762 765 766 766 770 769 765 762 760 761 761 763 763 758 753 751 749 747 747 748 747 744 738 738 740 742 744 743 746 749 743 740 743 747 749 751 754 757 760 762 766 769
815 814 813 811 810 808 807 805 804 803 801 800 799 798 797 796 795 794 794 793 792 792 790 790 789 788 788 786 787 786 769 750 746 750 751 750 751 751 750 751 753 754 755 757 757 760 762 763 762 762 766 765 763 761 758 764 765 758 757 755 752 749 746 744 746 746 746 741 736 740 742 741 741 743 752 753 746 744 745 750 753 754 758 761 762 763 765 768
814 813 812 810 808 807 806 804 803 801 800 799 797 796 795 794 794 793 792 791 791 790 789 790 788 787 788 784 788 782 754 744 749 750 752 752 752 752 752 751 752 753 754 755 756 759 759 758 758 758 762 762 760 759 757 762 760 752 752 752 750 749 744 743 745 743 744 742 738 743 744 740 738 746 761 757 747 746 749 754 757 757 761 762 764 764 765 768
813 812 810 809 807 806 804 803 801 800 799 797 796 795 793 792 792 791 791 790 789 789 788 788 787 787 786 784 789 775 747 745 749 748 752 752 751 753 752 752 751 751 753 754 754 755 755 755 755 759 762 760 758 757 755 755 753 750 751 752 750 748 745 743 745 743 743 744 740 740 744 742 739 748 759 756 750 748 751 758 759 760 763 763 765 765 766 768
811 810 809 807 806 805 803 802 800 799 797 796 795 793 792 791 790 789 789 788 787 787 787 786 787 786 784 785 780 759 744 747 747 747 750 750 751 751 751 753 751 750 750 752 752 751 753 754 756 761 760 758 759 760 754 748 749 749 750 755 752 748 747 744 743 743 743 744 738 739 751 752 747 751 753 750 751 750 752 758 760 762 763 764 766 766 767 768
810 809 807 806 805 803 802 800 799 797 796 794 793 791 790 788 788 787 786 786 786 785 785 785 785 784 785 780 762 747 747 749 746 747 747 749 750 748 749 751 750 750 748 748 749 748 751 752 756 759 756 759 761 756 750 745 748 749 749 754 756 756 754 744 741 742 742 742 735 742 763 763 750 751 750 747 751 753 756 759 761 763 763 764 766 767 769 769
808 807 806 805 803 802 801 799 798 796 794 792 791 789 787 786 786 785 784 784 784 784 784 783 784 783 783 772 752 746 750 749 748 747 744 748 749 747 746 747 748 748 747 747 746 747 750 751 755 757 755 758 757 753 752 751 751 752 753 754 757 765 759 742 738 742 744 742 734 744 766 763 750 750 750 747 749 753 758 760 761 763 763 763 764 767 770 769
806 805 804 803 802 801 799 798 796 794 793 790 789 787 785 784 783 782 782 781 781 782 781 782 782 782 782 769 749 744 747 748 748 743 741 746 749 747 744 744 746 745 746 746 746 747 748 750 754 758 756 753 755 759 761 759 755 754 763 765 760 764 760 744 737 739 743 742 736 745 762 760 749 749 748 747 749 751 757 761 762 763 763 763 764 766 769 770
804 804 803 802 800 799 798 796 795 793 791 788 786 784 782 781 779 779 779 778 780 780 780 781 779 781 782 764 746 742 743 743 741 737 739 742 746 746 743 744 744 743 744 743 744 746 746 749 752 754 754 754 757 763 766 768 764 758 765 770 763 761 761 752 741 735 737 741 741 745 756 756 748 747 747 746 749 751 756 761 762 763 763 763 764 765 768 770
803 802 801 800 799 797 796 795 793 791 789 787 784 781 779 777 776 776 776 777 777 777 779 778 777 782 773 753 743 740 737 736 735 736 737 738 741 742 743 744 743 741 741 741 743 744 745 748 750 752 753 755 757 762 772 779 776 767 766 768 763 759 760 757 747 737 735 741 745 745 749 750 744 744 748 746 748 752 756 760 761 762 762 762 763 764 767 769
801 800 800 799 797 796 795 793 792 789 787 785 782 779 775 772 772 773 774 775 775 777 779 777 780 778 756 744 744 738 733 734 734 734 735 736 738 739 742 743 741 740 740 742 742 743 746 747 750 755 755 756 757 762 773 776 772 771 769 767 765 759 758 758 751 739 737 743 746 748 750 747 742 744 748 746 747 752 755 757 759 760 761 761 762 764 766 769
799 798 798 797 796 794 793 792 790 788 786 783 781 776 771 769 770 771 772 773 775 775 772 771 774 764 742 737 740 734 733 734 732 733 733 734 736 737 740 741 740 742 744 746 746 743 746 750 753 759 759 757 755 757 764 763 760 763 764 764 763 761 758 754 749 739 737 745 748 749 750 747 743 744 747 746 746 752 754 755 758 760 760 760 762 765 767 770
796 796 796 795 794 793 791 790 789 787 785 783 780 776 771 769 769 770 772 771 769 763 758 758 761 754 741 735 735 733 733 731 731 731 730 732 734 736 738 739 741 744 746 748 748 742 744 755 757 756 756 753 751 753 755 754 753 756 759 761 760 761 758 749 745 739 735 745 748 744 746 748 743 741 744 745 747 753 755 757 759 760 760 760 763 766 769 771
794 794 794 793 792 791 790 789 787 786 785 783 781 780 777 772 769 768 769 766 759 754 752 751 753 750 741 733 733 737 737 733 730 728 730 730 730 735 737 738 744 748 747 746 745 742 744 754 755 750 750 748 748 750 751 752 753 754 758 761 761 761 757 746 743 739 735 744 746 741 746 749 741 738 740 742 748 754 754 756 759 758 759 761 764 767 770 772
792 792 791 792 790 790 788 787 786 784 783 782 781 781 777 771 767 767 769 764 753 748 750 747 748 746 736 732 734 740 744 741 733 726 727 728 728 733 735 738 746 748 746 745 746 748 750 752 748 745 745 744 746 747 748 751 753 756 758 762 764 759 754 748 742 737 737 744 746 742 747 749 739 736 739 740 744 749 749 750 752 753 757 761 764 767 769 772
790 789 790 789 788 788 786 785 784 781 780 779 779 778 772 766 765 767 769 766 751 740 742 742 742 741 734 731 733 738 742 740 735 726 722 725 727 729 733 738 744 746 745 745 747 752 755 749 742 742 742 743 746 746 748 752 753 756 759 764 764 757 756 756 746 739 738 740 740 741 747 748 741 739 739 738 739 742 745 746 747 747 749 754 758 761 765 769
788 787 788 787 787 786 785 783 781 779 778 776 775 771 767 764 764 766 769 767 750 733 730 730 732 732 726 725 729 734 737 733 731 724 718 722 725 727 731 734 741 745 743 742 743 748 749 740 736 739 740 742 746 747 749 753 756 755 756 761 761 753 755 755 748 742 739 737 735 741 756 753 743 744 741 736 738 740 742 748 750 749 748 751 757 762 765 767
785 786 785 785 786 784 784 782 778 778 776 774 771 766 765 764 761 765 768 766 754 734 724 722 724 721 716 721 727 728 731 728 723 719 715 717 721 725 729 730 737 743 741 740 742 745 743 735 733 738 740 741 744 747 748 751 757 757 751 752 753 749 751 752 748 747 752 753 739 741 767 765 744 744 741 736 741 742 743 748 753 754 755 757 762 765 768 770
783 784 783 783 784 783 783 780 777 777 774 770 768 765 765 762 759 763 766 769 759 734 722 720 719 713 711 719 722 725 733 726 714 714 715 715 716 720 728 730 731 736 738 738 739 740 738 732 731 736 739 741 743 745 744 746 758 760 746 742 744 746 751 752 749 754 763 761 739 735 760 765 749 744 738 735 742 744 746 751 753 755 758 761 764 766 768 770
781 782 782 782 782 783 782 779 776 776 773 769 766 765 763 759 760 760 765 774 758 727 719 721 715 708 707 712 715 725 733 720 708 711 711 712 713 714 726 729 729 732 730 734 742 736 730 733 733 733 737 741 744 744 739 741 755 755 738 735 741 744 751 750 748 754 756 750 741 734 743 756 754 744 736 736 743 747 752 756 756 757 760 763 765 766 767 769
780 779 780 780 780 781 780 778 777 775 772 768 765 764 761 759 760 758 769 773 741 713 714 716 710 705 705 708 712 720 720 711 711 711 705 708 710 712 723 725 726 729 723 730 744 733 724 732 733 732 737 740 739 737 734 737 747 743 732 733 736 739 745 744 745 751 748 750 754 742 740 757 758 743 739 742 745 754 759 759 760 761 762 764 765 766 768 769
778 777 778 778 778 779 778 778 776 772 769 767 766 764 759 759 758 759 773 762 721 703 707 707 707 706 706 711 714 716 713 710 712 707 702 707 707 709 718 719 720 726 722 725 736 729 721 724 725 728 734 735 732 729 728 733 738 733 729 732 732 736 740 739 745 748 748 759 762 746 740 755 760 747 746 750 751 758 762 759 760 761 761 764 765 767 768 770
776 776 776 777 777 777 776 775 773 770 769 768 766 762 758 759 759 767 775 748 712 704 704 705 707 705 709 715 718 717 714 712 709 704 704 706 706 707 711 712 715 722 724 724 728 724 717 716 718 721 725 724 725 725 724 727 730 727 729 734 736 740 739 738 744 747 754 765 758 744 737 745 758 753 746 752 751 751 757 762 763 762 763 765 765 767 768 770
774 774 774 775 775 775 775 773 769 770 771 768 765 761 758 760 765 772 761 726 709 710 706 707 707 704 710 715 717 718 716 713 709 707 709 707 708 711 712 715 718 724 729 729 728 725 719 718 718 714 714 717 721 724 723 722 725 727 730 736 744 749 746 748 751 751 765 768 748 739 738 740 753 753 747 753 751 743 747 755 762 764 764 765 765 766 768 770
773 773 773 773 773 773 773 770 768 769 769 767 766 761 760 767 771 767 744 718 716 717 708 707 705 704 710 712 714 717 715 714 709 708 711 710 713 715 714 718 722 730 738 736 732 730 726 721 716 712 710 711 719 728 727 723 725 730 734 741 753 761 760 763 765 762 766 761 740 734 739 743 753 757 757 759 752 745 743 743 750 757 760 763 764 766 768 771
771 771 771 771 771 771 769 768 768 770 768 768 767 761 765 775 768 752 739 728 723 715 707 707 705 704 709 712 713 714 714 714 710 710 711 709 714 716 715 714 716 725 734 734 735 736 733 724 715 715 713 707 713 726 732 731 730 733 736 744 755 763 768 773 772 768 764 753 740 734 738 750 760 760 762 759 749 746 746 745 748 752 756 761 764 767 770 771
770 770 769 769 769 768 767 768 768 769 770 769 766 764 773 778 760 739 734 730 722 713 710 712 709 704 707 710 708 708 715 715 710 710 712 712 717 718 717 715 713 717 723 730 735 735 739 733 718 715 714 706 707 715 720 723 727 728 727 734 746 750 756 765 765 763 760 750 743 741 747 763 769 762 760 756 748 746 751 755 756 757 760 763 766 770 772 773
768 768 767 767 767 765 765 767 767 769 772 771 767 769 773 770 754 740 734 729 724 718 714 712 708 704 706 707 704 703 709 712 710 711 712 714 718 718 717 716 714 714 719 730 732 728 734 731 711 705 706 702 705 707 705 714 726 725 720 729 740 735 735 749 755 751 748 745 751 761 767 772 770 763 760 756 752 752 757 761 762 763 765 767 770 773 775 776
766 766 766 765 763 762 763 765 766 768 771 772 771 771 768 758 747 741 734 730 729 724 720 716 709 707 709 707 704 703 703 706 709 713 713 712 713 713 712 711 709 711 716 724 727 724 730 727 707 701 703 699 702 701 699 710 721 722 724 728 728 721 722 740 753 751 744 748 764 777 778 774 769 766 764 760 759 760 762 765 767 767 768 769 773 775 776 777
766 765 764 762 760 760 761 763 765 767 770 772 772 768 761 752 743 739 734 732 731 726 726 727 718 714 716 712 707 705 703 705 708 713 714 711 710 709 708 706 703 706 710 715 718 717 722 723 707 701 705 699 695 697 697 699 705 716 725 721 716 720 722 729 746 756 752 756 774 781 775 772 772 771 768 765 765 765 765 768 770 771 773 773 775 776 777 778
765 764 763 760 758 757 759 762 764 767 769 771 770 764 756 749 742 738 736 734 732 728 730 734 725 719 721 721 715 708 705 707 710 712 712 712 709 704 704 704 700 701 703 708 716 714 716 723 711 699 703 698 692 700 705 700 697 704 710 707 715 731 735 733 744 756 757 761 777 783 777 772 769 769 768 767 768 768 768 770 772 774 777 777 778 779 779 780
765 765 762 758 756 756 757 760 763 766 769 769 770 763 754 748 742 737 735 733 732 731 731 732 728 724 722 721 720 714 708 708 710 710 710 712 709 700 697 699 698 699 700 703 713 713 714 724 718 702 700 699 696 704 714 711 702 700 702 704 711 721 729 732 738 746 751 759 772 781 782 775 765 763 764 763 765 767 768 771 773 776 779 780 782 782 781 782
765 765 761 756 756 755 755 759 763 767 768 766 766 761 753 747 740 733 732 730 729 728 726 726 725 726 723 720 719 716 711 709 708 708 707 707 706 702 696 695 696 698 698 701 708 710 714 723 723 710 702 704 707 706 709 712 708 707 710 713 713 714 719 726 732 736 739 749 766 780 785 776 760 756 759 761 764 766 766 770 773 776 780 782 784 783 783 785
764 765 760 755 756 755 755 761 764 765 766 764 761 758 752 746 739 732 729 727 726 722 720 720 720 721 723 721 719 715 713 711 707 706 705 703 704 704 695 690 692 694 697 703 706 707 713 720 721 716 709 711 712 705 703 706 705 706 709 712 713 715 720 731 739 735 728 737 757 769 775 772 760 755 758 761 765 767 768 770 774 777 780 782 784 784 785 787
765 764 758 754 756 755 757 762 762 761 762 760 757 754 748 743 738 734 729 726 723 719 716 715 713 716 721 721 719 717 715 713 708 705 704 701 699 696 689 685 686 688 694 703 704 701 705 714 719 718 714 712 707 699 699 701 701 701 702 704 708 712 719 731 740 735 726 734 750 755 759 765 763 758 757 760 764 768 771 773 775 778 779 781 783 784 785 788
765 763 757 755 757 756 758 761 761 761 760 755 751 747 744 741 737 733 728 724 722 717 713 709 706 710 716 717 717 716 714 711 706 702 700 698 695 689 685 683 684 686 692 700 701 698 701 712 718 718 715 708 699 693 691 693 698 703 703 701 705 709 712 718 724 725 725 734 744 749 759 765 763 759 758 760 765 769 772 774 776 780 781 782 784 785 786 788
765 761 757 756 756 757 759 759 759 761 757 752 749 745 742 738 734 731 728 724 721 717 713 708 704 705 710 712 712 713 712 710 706 700 698 698 693 687 685 683 682 684 690 695 695 696 704 714 718 722 724 719 711 706 701 698 699 704 704 700 700 703 707 713 719 720 726 735 735 739 757 767 762 761 761 762 768 772 774 775 777 780 782 783 785 785 787 788
764 761 758 757 756 757 758 756 757 759 756 753 751 746 742 736 728 726 726 721 718 717 714 707 699 699 704 709 711 711 709 708 708 702 698 697 693 687 686 685 681 681 685 686 686 690 702 711 714 721 731 733 729 725 720 713 709 707 705 701 701 702 705 714 723 725 730 740 739 739 755 767 764 763 765 766 770 773 775 777 778 780 782 783 784 785 786 788
765 762 759 758 757 758 758 755 756 759 757 755 752 743 739 735 726 721 720 716 711 709 709 705 697 697 702 707 711 713 708 706 708 705 701 698 695 690 687 685 682 681 681 682 683 689 700 707 708 712 718 724 725 723 720 716 717 720 716 709 706 705 705 713 723 726 728 738 747 748 752 761 764 763 764 766 770 774 777 778 779 780 781 782 783 785 786 788
765 764 762 761 759 759 758 755 755 756 754 753 750 742 738 736 729 721 716 711 707 702 702 702 699 699 703 705 709 712 710 707 707 706 702 699 697 693 689 686 684 681 679 682 684 690 700 707 708 708 711 714 716 719 720 716 721 729 726 718 712 708 710 717 722 724 726 735 751 755 750 755 763 762 760 763 766 771 776 777 779 780 781 782 784 785 787 789
765 765 764 763 762 759 757 755 754 753 751 750 748 743 740 738 734 727 717 709 706 702 701 703 703 703 705 705 707 710 711 711 710 707 704 702 700 697 692 688 687 683 681 684 686 690 700 709 711 711 715 718 717 719 721 720 726 731 728 726 719 709 709 716 719 721 721 724 740 751 749 752 758 760 760 761 762 766 772 774 776 780 781 783 785 786 789 792
766 766 763 762 762 758 756 755 754 753 751 749 747 743 740 738 734 727 718 712 711 708 705 707 708 706 705 705 708 711 711 713 714 710 707 706 705 704 701 698 694 688 684 686 689 693 701 713 716 712 717 726 726 725 727 727 730 732 729 728 725 715 709 712 719 723 720 718 730 742 747 750 754 757 761 764 764 766 770 773 776 779 782 784 787 788 791 794
767 767 764 763 761 757 755 754 752 752 749 746 745 740 736 735 731 727 721 716 715 711 707 708 710 708 707 706 708 711 711 712 713 709 706 707 707 706 707 708 705 697 689 689 694 695 700 717 722 712 718 732 731 728 733 733 733 734 731 727 725 721 717 717 724 730 730 731 737 743 751 756 756 757 762 767 769 771 773 776 778 780 782 784 788 791 792 795
766 765 763 763 759 754 752 749 747 748 746 744 743 739 735 733 730 730 725 715 713 713 709 710 710 708 708 708 709 710 709 709 709 704 702 703 705 705 705 708 709 703 695 693 697 697 700 715 722 714 721 736 734 731 734 732 730 732 732 730 728 726 726 726 726 727 732 740 746 748 754 759 758 760 764 768 772 774 776 778 779 781 783 785 789 792 794 796
765 763 761 762 759 752 749 748 746 746 744 742 741 738 737 734 729 730 727 715 710 712 711 712 712 710 710 711 709 708 707 707 706 704 702 703 704 705 704 705 706 705 702 697 699 705 705 710 718 719 727 743 744 735 731 732 734 735 735 740 739 733 730 731 729 727 728 735 743 745 748 752 755 759 766 770 773 776 777 779 780 782 784 787 791 793 796 798
Wind_Speed
13 14 14 14 15 15 16 17 17 18 18 17 17 17 17 17 17 17 17 16 16 17 17 18 18 19 19 20 22 23 25 26 26 21 13 22 25 18 15 15 11 7 10 13 12 9 7 6 7 7 3 2 2 2 3 4 3 2 2 4 5 5 5 4 4 4 3 8 8 7 7 2 6 4 4 7 11 13 11 10 11 11 12 16 21 29 32 32
13 13 14 14 15 16 16 17 17 18 17 17 17 17 17 17 17 16 16 16 16 17 17 18 18 19 20 20 22 23 26 26 22 18 24 31 24 20 20 19 15 11 12 13 12 9 4 3 4 3 1 0 2 2 3 3 2 3 3 4 5 5 4 2 3 5 5 8 11 9 6 1 5 6 4 5 7 13 14 9 13 17 14 18 23 27 28 30
13 13 14 14 15 16 17 17 17 17 17 17 17 17 17 17 17 17 16 16 16 17 18 18 18 19 19 20 21 23 24 21 12 15 29 29 23 26 24 20 18 13 15 16 11 9 8 5 4 1 2 2 3 3 3 3 2 3 4 4 6 5 4 4 4 7 7 9 12 10 4 4 2 3 4 8 9 12 14 10 13 17 16 17 17 21 25 25
13 13 14 15 16 17 17 18 17 17 17 17 17 16 17 17 16 16 15 15 16 16 17 17 18 18 19 20 20 22 19 11 5 11 20 18 19 26 27 23 19 15 17 17 11 9 10 7 4 2 2 3 4 3 4 4 3 3 4 5 5 4 6 5 6 8 9 11 11 8 4 7 6 1 7 12 10 6 10 14 18 21 21 20 17 18 21 20
13 14 15 16 17 17 17 17 17 17 16 16 16 15 16 16 15 16 16 16 16 16 17 17 18 18 19 20 21 20 11 3 3 5 7 6 9 20 27 26 20 17 18 17 13 10 9 6 1 1 2 3 4 3 4 6 4 4 4 5 6 5 7 7 7 8 8 11 11 5 5 3 5 3 7 11 9 5 8 14 21 24 23 23 20 17 17 16
14 15 15 16 17 17 17 17 17 16 16 15 15 15 15 16 16 16 16 16 16 16 17 17 18 18 19 21 20 12 3 2 4 3 4 8 5 7 20 26 22 19 19 17 12 6 5 3 2 2 2 3 5 5 5 5 4 4 6 5 7 8 7 7 6 7 6 8 8 4 3 2 4 5 2 5 8 8 7 10 17 21 21 23 20 17 16 15
14 15 16 17 17 17 17 17 17 16 16 15 15 15 15 16 16 16 16 17 17 16 17 17 18 18 18 21 15 3 2 7 9 3 7 9 8 2 12 23 22 20 20 16 10 6 3 3 3 3 2 3 5 7 7 5 4 5 7 7 8 8 9 9 8 7 7 8 6 2 4 5 6 3 1 1 6 11 11 10 14 17 18 20 19 17 16 16
15 15 16 17 17 17 17 17 17 17 16 15 15 16 15 16 16 17 17 17 17 17 17 17 17 17 17 17 9 1 2 13 17 5 5 8 5 0 10 21 23 21 20 17 12 7 4 4 6 4 3 6 5 5 6 4 4 6 7 7 7 7 8 9 8 6 8 9 5 3 6 4 3 3 4 6 9 15 15 13 15 16 17 16 16 17 16 15
15 15 16 17 17 17 17 17 17 17 17 16 16 16 16 16 17 18 18 18 18 17 17 17 16 16 14 11 4 2 9 25 29 15 6 8 5 5 13 19 23 23 19 18 17 10 5 5 8 7 4 5 6 7 5 3 5 6 7 8 8 8 8 8 7 7 7 6 3 4 8 4 4 5 5 5 11 15 16 15 15 16 16 14 14 15 14 14
15 15 16 17 17 17 18 18 18 18 17 17 17 17 17 17 17 18 18 19 17 17 17 16 15 14 12 7 2 4 12 22 26 21 12 9 7 8 14 16 21 24 17 15 16 12 9 9 7 5 3 4 5 7 5 4 5 5 6 7 8 9 9 7 6 6 5 4 4 4 7 7 2 6 3 3 11 16 17 15 14 14 15 14 12 12 12 12
15 15 16 17 17 18 18 19 19 19 19 18 18 18 18 18 18 18 19 19 17 17 16 15 14 12 9 5 3 7 7 6 11 15 10 4 5 8 13 14 17 22 18 12 15 18 17 14 7 1 3 4 5 6 5 5 5 6 6 7 8 8 8 7 6 6 3 3 5 7 3 7 3 6 8 8 11 16 18 15 14 13 12 12 11 10 10 10
15 15 16 17 17 18 19 19 19 20 20 20 19 19 19 19 18 18 19 19 18 18 16 15 12 10 11 6 9 19 12 5 7 8 8 9 11 13 14 13 15 21 19 11 13 22 23 19 9 3 4 3 3 4 6 6 5 7 6 6 9 7 7 8 7 5 6 4 6 7 1 5 5 3 12 13 11 14 18 16 14 13 12 11 10 9 9 11
15 16 16 17 18 18 19 19 20 21 21 21 21 21 20 20 20 20 20 19 19 18 16 14 11 11 10 5 17 34 24 15 17 20 22 20 19 20 17 16 18 22 23 16 16 22 24 21 11 6 6 3 3 4 5 5 2 5 5 4 5 5 6 7 5 5 7 5 6 7 1 5 7 4 11 14 12 14 15 14 13 12 11 10 10 9 9 11
14 16 16 16 17 18 19 19 20 21 21 22 22 22 22 22 22 22 21 21 19 16 14 12 10 10 8 8 24 34 29 28 31 32 32 26 21 22 21 18 17 23 26 21 19 19 22 23 13 6 6 4 5 6 8 6 2 4 4 2 3 2 6 7 5 6 6 5 6 8 3 7 8 6 11 13 14 16 15 14 13 11 11 11 10 11 10 10
14 15 16 16 17 18 19 20 21 21 22 23 22 22 23 22 23 23 22 20 17 15 12 11 9 8 6 11 22 23 17 19 26 33 34 29 20 16 21 19 14 19 27 25 20 15 18 19 10 4 5 5 6 6 6 4 3 2 2 4 2 3 5 7 6 7 7 4 5 8 4 6 8 7 12 13 14 16 16 14 12 12 12 12 11 11 10 8
15 15 17 17 17 17 19 20 22 23 23 24 24 24 24 23 25 24 19 16 15 13 9 8 8 7 4 7 12 13 8 9 18 28 29 29 25 19 23 20 16 17 22 25 21 14 12 10 5 4 5 4 5 4 4 4 4 2 2 4 3 3 3 5 6 5 8 4 4 7 5 4 6 6 13 14 15 16 15 14 13 13 13 13 11 10 10 9
15 15 17 17 17 18 19 21 23 24 24 25 25 26 27 27 25 20 15 12 13 11 8 7 5 6 8 9 9 10 8 13 18 19 19 21 24 26 23 14 12 11 11 16 16 10 6 4 3 4 5 5 4 5 3 5 5 3 1 4 4 3 4 3 6 5 5 6 5 7 6 6 6 6 14 14 14 15 15 15 14 13 12 12 11 10 11 11
15 16 16 17 18 18 19 21 23 24 24 25 25 27 30 26 18 13 11 10 6 4 6 8 4 2 6 7 7 7 5 9 13 13 15 14 15 24 22 10 7 5 2 6 7 6 3 2 3 3 3 5 5 6 6 6 6 4 3 3 4 3 4 4 5 4 4 6 6 6 6 10 8 4 12 14 14 14 15 16 14 13 13 12 11 11 11 12
16 16 16 17 18 18 19 21 23 23 24 24 26 28 24 12 6 6 7 5 2 1 3 5 6 2 5 6 9 9 8 10 10 10 13 13 12 18 19 12 6 3 2 3 4 6 4 2 4 5 6 7 8 8 7 5 6 7 6 4 4 5 5 5 5 5 5 6 7 8 8 9 10 6 9 13 14 13 15 15 13 12 12 12 11 9 10 11
16 17 16 17 18 18 19 20 22 24 23 23 25 23 12 3 1 1 3 5 7 7 5 7 11 7 11 10 5 6 14 15 8 7 12 15 13 10 9 6 3 2 4 4 4 5 5 4 7 8 7 8 9 8 7 6 6 7 5 4 6 5 6 6 5 7 5 6 8 12 10 8 10 10 8 11 13 13 14 14 12 12 12 11 11 10 10 9
16 17 16 16 18 18 18 21 23 24 22 21 19 12 3 2 2 0 1 6 12 15 13 11 15 13 16 17 11 9 12 13 10 8 13 17 14 9 5 4 4 4 4 5 5 2 5 8 9 8 7 7 8 7 8 8 7 7 5 4 6 5 6 6 5 7 6 6 8 12 10 8 11 11 7 10 13 14 14 15 14 14 13 10 11 12 11 9
16 16 16 16 16 17 19 21 23 25 25 22 14 5 6 8 5 3 3 6 11 16 17 15 15 16 21 26 22 12 6 8 13 13 11 15 13 8 5 5 6 4 4 5 5 4 6 9 8 7 7 6 7 8 9 9 8 7 5 4 5 4 5 5 5 6 5 5 7 11 10 9 11 10 5 9 13 14 15 17 17 16 15 12 12 13 12 12
16 16 16 15 15 17 19 21 25 27 24 18 10 9 10 12 11 9 4 5 10 11 13 15 16 14 18 21 18 11 7 8 10 11 10 13 11 9 7 6 7 5 5 7 8 7 6 6 8 7 7 8 7 7 9 8 6 6 4 4 5 5 3 3 5 5 5 7 7 9 9 6 8 5 3 6 9 13 16 16 17 17 18 17 16 15 15 16
17 16 15 16 16 16 18 23 27 21 16 15 16 16 15 20 22 15 3 2 9 7 10 17 15 12 18 17 9 10 9 8 8 10 10 11 9 8 9 9 8 7 8 10 11 10 5 4 9 9 8 10 8 7 10 8 6 7 7 6 6 8 6 4 4 5 4 8 6 5 2 4 6 4 5 6 4 13 16 14 13 13 14 15 14 13 13 15
17 15 15 16 15 14 19 23 20 14 17 19 18 18 20 24 26 14 2 1 7 4 5 12 10 10 18 15 9 9 7 7 9 10 9 11 12 8 8 7 7 9 11 10 10 9 7 5 10 12 10 10 10 7 8 9 6 8 8 9 10 11 6 2 3 5 3 7 4 7 4 6 5 4 8 5 4 11 14 13 14 10 10 12 12 11 11 10
17 15 14 15 12 14 17 13 10 16 19 14 12 19 23 25 22 8 5 2 5 3 2 5 5 8 11 9 9 6 3 6 10 13 13 14 16 12 7 5 5 10 10 7 6 5 6 6 10 13 11 10 11 8 7 9 6 6 6 9 13 12 5 3 4 2 2 6 5 7 7 5 3 3 9 6 8 12 11 12 14 12 11 11 11 11 11 11
16 15 14 14 11 11 10 7 13 18 11 8 16 25 25 24 16 5 4 2 4 3 2 2 2 7 9 11 12 8 3 5 6 10 12 15 16 13 9 7 6 8 8 6 5 4 7 9 10 12 11 10 9 8 8 9 7 6 5 9 11 10 6 5 5 4 4 4 5 4 7 2 2 6 6 7 12 12 11 11 12 12 12 11 11 11 11 12
17 16 14 13 10 9 11 13 16 12 7 14 25 27 26 24 13 3 2 3 3 3 3 2 3 6 7 11 14 7 6 4 2 6 11 15 14 11 10 9 9 9 9 8 6 4 9 11 12 12 11 9 9 9 9 9 7 7 5 7 9 7 6 7 6 6 4 1 5 5 5 3 3 5 1 8 12 12 12 13 13 12 13 12 12 11 11 10
16 15 14 13 11 12 15 16 16 13 14 22 26 28 27 20 8 2 1 3 2 2 2 3 4 5 5 9 11 8 7 2 1 3 8 11 9 7 7 7 9 11 10 8 6 5 8 11 11 12 10 9 9 9 10 11 8 6 6 7 6 5 5 6 6 5 1 1 6 8 6 4 3 5 2 6 8 11 11 11 12 13 13 12 11 11 11 9
16 15 15 12 11 14 14 16 19 17 17 21 25 28 22 9 2 2 2 3 2 2 1 2 3 4 9 9 8 9 9 4 4 1 4 5 4 4 5 5 7 7 7 7 6 6 6 8 9 9 8 9 10 10 11 13 9 5 6 7 5 1 2 3 3 3 2 2 8 10 8 7 2 5 4 3 4 11 12 9 10 11 12 11 10 10 10 9
16 16 15 12 12 12 9 10 14 14 14 19 25 22 10 2 2 2 3 2 3 2 2 1 3 7 12 10 6 8 8 6 4 1 2 4 4 4 4 5 4 4 4 6 7 7 6 7 8 6 7 9 9 9 10 11 9 6 5 5 4 3 1 1 1 1 4 5 7 7 7 8 5 5 3 5 5 10 18 15 15 14 13 12 9 9 10 9
18 16 15 13 13 13 11 12 15 16 16 20 22 12 2 4 1 4 4 4 2 1 2 1 2 6 11 8 7 9 7 5 3 2 3 4 4 4 4 5 5 4 4 4 5 6 6 6 6 7 8 10 9 8 7 8 8 7 5 5 4 2 1 3 2 2 5 6 7 5 6 5 6 4 3 9 6 8 14 17 20 18 16 13 9 9 9 9
17 16 15 13 13 16 19 20 21 19 18 20 14 3 3 1 3 4 4 4 2 3 4 5 5 3 10 7 5 10 8 5 3 2 4 5 4 4 5 5 6 6 4 3 4 5 5 6 6 8 7 9 11 8 6 6 6 8 7 5 5 4 3 4 3 2 3 5 6 4 7 4 4 1 6 10 4 7 6 9 17 18 15 13 10 10 10 10
17 14 14 14 15 19 21 21 20 17 16 16 7 3 2 4 3 2 4 3 4 6 7 8 12 5 11 8 6 10 7 5 4 3 4 5 5 4 6 6 6 6 4 4 4 5 7 7 7 8 5 7 12 9 8 7 6 7 6 6 5 5 5 4 4 3 4 4 4 1 4 2 2 2 7 7 2 10 8 7 10 11 11 11 10 11 10 9
16 13 13 14 17 20 22 20 19 17 12 8 2 2 4 5 2 2 1 2 4 7 10 10 11 4 9 7 6 10 7 4 6 4 3 5 5 4 5 6 6 5 4 4 3 3 7 7 6 7 6 8 10 9 8 8 6 5 4 5 5 6 6 2 4 6 5 3 1 2 1 0 1 2 5 5 8 11 11 10 10 10 10 11 9 9 9 8
14 12 10 13 18 20 18 15 15 14 9 3 1 3 4 3 2 2 2 5 6 9 12 9 6 2 4 5 5 9 7 3 6 4 2 4 6 5 5 5 6 7 5 4 3 3 6 6 5 5 8 9 9 9 9 8 6 4 4 5 5 5 7 4 3 2 4 5 2 0 2 1 1 2 5 7 10 10 11 10 9 8 11 10 8 8 9 8
11 8 7 13 20 20 15 10 9 10 6 2 3 4 3 3 4 4 5 8 10 11 9 5 3 4 1 0 1 6 8 4 4 4 2 3 4 5 6 5 6 9 8 6 3 2 5 4 6 6 9 9 8 9 10 9 8 5 6 6 4 4 3 4 3 1 3 4 2 0 4 4 3 1 2 7 10 10 10 10 9 8 8 8 7 8 9 9
7 6 7 13 15 14 15 12 9 9 4 2 5 4 3 4 4 6 8 9 11 10 6 2 2 3 3 1 4 0 5 5 4 5 3 3 4 5 8 5 6 10 9 8 3 2 3 1 7 5 8 7 5 7 8 7 4 5 6 5 5 4 2 1 3 2 2 4 0 1 4 4 3 3 6 10 10 10 11 10 10 9 7 7 8 10 10 10
5 4 4 7 9 5 11 15 11 6 2 4 5 4 3 5 7 9 10 9 8 7 4 2 2 2 2 1 2 3 0 2 5 4 3 4 4 6 10 7 6 11 11 9 6 4 2 2 4 3 4 4 3 5 7 5 2 0 3 4 3 4 4 3 4 3 4 4 2 3 3 3 2 4 9 14 12 12 12 10 9 8 7 7 7 9 9 9
3 3 2 7 12 3 10 14 10 4 3 4 3 4 5 7 8 10 11 10 7 4 4 3 3 1 2 1 2 2 2 1 3 2 2 6 4 5 9 8 6 10 11 10 7 4 1 2 3 4 3 2 3 3 5 6 4 2 3 4 4 3 2 2 2 2 4 4 3 4 3 4 3 3 8 12 11 10 11 10 9 8 9 7 7 7 8 8
3 2 1 8 14 2 12 11 5 4 4 3 3 6 7 7 9 11 13 12 8 5 7 8 6 3 1 1 2 1 1 2 1 1 1 5 4 2 8 10 7 9 10 8 6 4 2 3 3 3 2 1 4 2 3 3 4 4 5 5 5 4 4 3 1 2 3 4 4 5 3 5 4 1 4 8 8 7 9 9 9 9 10 9 7 7 7 7
1 2 3 9 15 4 8 6 3 4 3 4 5 6 7 7 9 11 12 12 10 8 8 10 9 5 3 2 3 2 1 1 2 1 1 3 4 3 7 11 10 9 8 6 5 5 3 3 3 3 2 4 6 4 3 5 4 3 4 4 5 5 4 5 3 3 2 3 3 4 3 4 4 1 5 8 9 8 8 9 9 9 9 9 7 7 7 7
1 2 4 6 9 2 6 5 3 4 3 5 6 9 8 8 9 10 11 11 8 7 7 6 5 3 2 4 4 2 1 1 2 3 2 2 3 3 3 7 9 7 6 5 5 5 3 3 2 2 3 3 6 7 2 3 3 2 2 3 5 4 4 5 4 3 3 3 3 3 1 3 3 1 6 10 10 10 9 9 10 9 7 8 8 7 6 6
2 3 3 2 2 1 4 3 3 4 4 5 7 9 8 8 10 11 11 10 7 6 8 6 3 3 3 4 3 2 2 1 2 3 2 1 3 2 4 1 4 7 5 4 5 4 4 2 3 2 1 3 3 5 5 3 2 1 2 3 4 6 6 3 1 3 3 3 5 5 2 2 1 3 9 12 12 12 10 10 10 10 8 8 8 7 6 5
3 2 1 1 2 1 1 1 2 2 3 4 6 9 8 8 9 10 11 12 10 8 9 7 3 3 4 3 1 2 3 3 1 3 1 2 3 1 5 8 2 6 5 6 7 6 5 3 4 4 4 3 3 3 2 3 2 2 2 2 3 6 7 4 2 3 4 2 3 5 4 2 3 7 12 13 13 12 11 11 10 10 10 9 7 7 6 6
2 1 1 1 2 1 1 1 1 1 2 2 3 6 7 7 7 8 10 12 12 12 10 8 4 1 3 4 2 1 2 2 0 3 2 2 3 1 3 7 5 4 5 4 6 5 3 3 4 6 7 6 5 3 2 1 2 2 5 5 2 4 6 5 3 3 5 3 3 1 7 9 8 11 14 13 13 13 12 12 11 10 10 9 7 7 7 7
1 1 1 1 0 1 1 1 2 3 3 2 2 3 5 6 7 6 6 7 9 8 6 3 2 2 3 3 3 1 2 2 3 3 3 2 2 3 4 5 5 4 6 4 3 5 4 2 4 6 6 6 5 3 5 3 3 1 4 7 6 2 7 7 3 4 6 6 2 2 11 14 9 11 15 15 15 14 12 12 12 10 9 8 8 9 10 9
1 1 0 0 1 1 1 2 3 4 5 4 3 3 6 8 8 7 6 4 6 5 1 2 4 4 4 4 3 1 1 4 4 4 2 2 3 5 6 5 6 6 6 4 2 4 6 2 3 4 6 5 7 7 5 3 3 1 3 6 7 2 7 7 4 7 8 6 5 10 15 15 12 11 13 14 15 15 14 13 12 11 10 9 9 11 11 9
1 1 1 2 2 3 3 4 5 6 6 5 4 5 7 9 10 9 6 3 5 6 1 1 3 5 5 5 4 1 1 2 2 4 2 2 3 3 4 4 6 6 5 4 3 3 4 1 2 3 7 7 10 10 8 6 4 3 4 5 6 2 6 6 3 4 6 7 11 15 14 11 11 11 11 10 11 12 12 12 12 12 12 11 10 11 11 9
1 1 2 1 3 4 4 5 4 3 4 4 4 4 5 7 7 7 5 2 3 5 2 1 2 4 5 4 3 2 2 3 3 4 1 1 2 2 2 1 3 7 5 3 2 3 3 2 2 2 5 4 7 11 10 7 4 3 4 5 7 7 7 7 6 6 5 6 12 15 10 5 5 9 11 9 9 11 12 12 12 12 12 13 11 10 11 10
4 5 5 3 3 3 2 2 2 2 1 2 3 3 3 4 5 6 5 3 3 3 2 3 4 4 4 4 2 2 3 2 4 6 4 3 1 1 1 2 2 5 5 3 2 3 4 3 2 4 5 2 4 8 8 6 6 5 5 7 7 5 4 3 2 4 7 11 14 14 8 4 6 10 11 10 10 11 12 12 12 10 10 12 11 9 10 10
7 7 6 3 3 3 3 3 1 1 1 2 2 4 5 7 7 4 4 4 2 2 3 4 5 3 2 3 4 5 4 3 5 5 3 3 3 4 2 0 2 2 2 2 3 3 3 4 2 3 5 2 4 6 7 6 6 3 4 4 5 3 2 3 2 3 10 14 12 8 8 8 11 13 12 11 11 11 11 10 9 10 10 10 10 10 10 9
Wind_Direction
334 334 333 334 332 331 330 328 328 326 327 325 324 324 323 322 320 319 318 316 318 319 320 320 320 321 321 322 325 324 323 319 311 308 277 249 247 245 245 245 247 255 282 284 253 252 294 281 258 251 265 330 209 229 232 199 192 184 180 209 222 229 225 196 206 237 275 305 306 316 314 167 124 115 112 60 73 91 79 70 75 66 84 107 119 128 131 133
332 331 331 331 330 330 328 327 326 324 324 322 322 322 320 319 316 318 317 314 316 317 320 320 320 321 321 324 325 323 323 317 307 290 262 253 254 250 243 241 237 238 260 256 231 224 245 260 255 236 181 303 238 228 242 228 185 173 177 211 222 223 231 220 243 280 299 297 299 303 303 253 139 149 144 99 102 98 89 81 91 92 95 108 120 128 132 135
329 330 329 330 330 328 327 326 324 323 322 321 321 320 319 317 315 316 316 315 314 315 319 320 321 322 323 324 322 324 323 316 302 270 268 263 252 246 239 233 224 223 238 231 224 224 222 246 297 326 183 245 256 229 246 259 245 206 187 223 242 238 261 269 267 280 282 288 294 287 311 18 11 148 132 128 123 110 115 124 115 118 126 126 130 133 135 137
327 328 327 328 328 327 326 324 322 322 321 321 320 319 318 315 314 314 316 318 315 316 317 320 323 321 324 324 321 326 323 311 277 258 276 273 245 235 229 225 215 211 222 222 232 238 241 270 321 351 227 243 255 228 234 237 242 229 188 210 230 240 271 262 264 279 288 293 284 280 11 15 323 40 133 132 115 114 146 151 142 142 144 141 142 140 140 140
325 325 326 326 326 325 325 324 322 320 320 321 319 319 318 316 314 313 316 318 317 318 319 321 323 321 324 323 323 326 325 299 273 269 295 308 247 228 220 214 204 205 212 218 232 237 253 272 37 27 230 237 252 231 233 226 222 261 241 225 222 228 260 259 261 267 278 287 283 312 30 341 317 53 135 142 135 175 179 163 151 148 148 146 145 143 142 142
322 323 324 324 324 324 324 324 321 318 319 318 318 319 318 317 314 313 315 316 317 318 319 322 322 325 325 324 325 319 294 242 304 353 26 20 18 212 207 203 197 201 207 215 225 226 248 236 137 192 210 233 238 223 237 227 193 246 268 256 240 230 242 257 259 256 264 285 291 319 335 312 25 54 175 176 162 168 156 154 148 143 143 142 141 142 144 145
320 321 322 322 323 323 323 322 319 317 317 316 316 316 315 315 313 312 313 313 315 315 317 321 321 326 326 330 331 292 213 274 275 358 24 11 17 59 188 194 194 197 202 208 213 204 203 190 181 186 206 253 238 224 235 237 198 219 259 261 250 234 233 248 253 265 270 259 250 273 335 9 43 53 352 76 128 125 118 131 135 132 135 137 139 143 145 147
318 321 321 322 322 322 321 320 319 318 316 315 313 312 311 311 311 310 310 310 311 312 315 316 320 326 328 336 338 259 256 246 236 227 5 357 356 73 180 186 188 195 201 207 209 199 183 198 212 188 206 236 235 248 243 248 243 226 246 260 256 241 233 240 245 256 259 252 255 335 343 357 67 70 63 80 106 115 120 128 129 130 134 140 143 144 146 149
317 320 321 321 321 320 320 318 317 316 314 314 311 309 308 307 309 309 309 308 308 310 312 314 317 321 324 329 325 297 251 232 227 230 290 334 319 207 183 184 192 198 204 214 213 199 183 202 213 197 208 239 245 264 258 236 249 228 228 245 251 254 249 243 247 241 237 252 277 318 316 313 122 85 47 89 115 118 124 129 133 136 137 143 147 148 149 149
314 317 319 320 320 318 318 317 315 313 312 311 310 310 307 308 308 307 307 306 307 308 309 312 314 317 322 315 263 257 253 240 238 245 268 317 311 230 196 190 197 201 202 213 210 197 197 209 209 192 218 270 257 252 248 211 235 247 241 252 249 255 259 244 247 244 226 243 215 210 277 287 132 101 69 120 129 125 126 131 138 139 140 146 149 149 147 142
309 313 316 317 318 317 317 316 315 313 312 310 309 308 306 306 305 306 306 303 305 306 307 309 310 313 305 293 236 240 247 236 234 237 244 287 309 252 223 212 202 199 200 203 208 205 208 219 223 165 228 253 261 271 275 232 241 270 271 288 277 271 279 256 252 249 208 239 202 167 229 295 346 106 145 156 143 135 132 136 142 141 144 146 144 141 139 136
303 308 311 313 315 317 317 317 317 313 311 309 306 305 304 304 303 304 303 303 303 302 304 303 304 304 286 273 233 233 223 169 203 229 247 277 294 276 264 258 231 210 203 193 210 212 211 221 222 210 243 256 265 275 278 250 245 264 255 277 285 296 297 268 259 231 178 216 201 148 100 308 314 156 155 152 151 142 134 138 143 144 147 143 137 135 134 136
296 303 306 310 313 315 316 318 319 315 313 310 306 305 304 303 301 300 299 301 302 300 299 294 294 291 278 268 245 243 245 250 263 280 275 278 288 276 269 270 257 233 215 205 213 214 212 219 215 215 250 277 263 262 285 289 280 267 246 223 267 310 294 267 252 195 173 207 186 146 181 265 268 220 161 151 151 144 135 142 146 148 150 142 137 134 136 140
290 298 301 307 311 313 316 318 320 319 316 313 309 305 302 301 298 296 295 295 296 298 295 289 284 276 261 264 267 263 264 267 272 278 271 271 282 278 266 261 265 243 223 218 219 215 213 217 213 222 248 236 251 295 308 314 330 287 289 238 227 241 270 275 247 186 177 222 171 145 191 236 257 231 170 158 154 148 142 149 150 154 153 144 143 137 141 147
285 293 297 304 308 311 314 316 319 319 316 313 308 303 299 298 297 296 295 293 293 293 290 287 267 261 279 270 274 284 284 270 265 261 257 260 265 275 266 260 275 248 223 223 226 220 216 213 205 219 249 229 231 277 295 303 317 290 281 285 268 182 259 293 263 188 173 227 160 147 192 234 251 221 173 163 160 152 147 154 155 155 154 146 144 139 140 142
282 287 295 301 305 309 312 315 317 317 315 313 308 303 299 295 296 297 295 291 291 288 279 279 243 221 269 273 284 306 290 236 244 249 249 250 242 245 257 264 288 264 222 219 225 222 215 206 192 205 230 238 213 217 264 297 308 298 191 248 259 182 237 294 285 221 180 191 168 176 198 233 252 195 169 168 164 156 148 156 160 156 154 148 144 141 138 134
279 283 291 297 302 305 309 313 316 316 316 315 311 305 300 296 296 294 288 282 287 280 244 250 237 206 247 275 304 307 254 228 240 247 248 247 237 236 247 262 283 268 218 214 224 221 205 184 191 205 210 223 190 160 217 248 252 285 221 227 249 203 202 233 282 281 187 179 204 208 206 227 246 163 165 175 166 159 153 157 164 160 155 151 147 144 143 141
277 281 286 293 299 301 306 311 315 316 317 316 313 307 303 298 294 287 276 271 281 278 238 248 257 222 246 253 267 271 262 257 251 243 238 240 234 230 228 232 271 292 218 213 225 210 181 172 191 205 219 213 191 170 202 216 196 218 211 206 258 232 212 212 246 268 181 187 216 216 220 232 246 174 164 181 171 160 159 160 166 163 155 154 152 148 148 148
277 279 282 291 295 297 303 308 313 317 317 317 316 314 311 303 288 274 258 235 164 173 223 212 197 215 289 253 229 248 298 305 275 243 225 217 215 218 214 219 257 306 192 188 217 204 172 169 192 205 223 210 208 197 196 194 171 196 200 185 225 233 237 218 228 249 186 188 219 215 223 226 237 223 166 175 172 162 164 164 164 164 158 154 151 147 145 146
274 278 282 287 291 296 301 307 312 314 315 318 321 326 331 350 347 279 216 199 203 224 227 187 187 229 290 281 259 294 321 320 289 227 212 206 191 189 198 205 216 236 212 177 203 201 155 193 216 208 214 212 216 198 180 203 199 205 202 203 227 228 243 227 223 246 188 174 225 220 221 224 231 227 174 161 167 167 168 165 164 164 160 154 146 140 136 136
271 278 281 282 289 295 299 306 309 310 313 311 315 325 321 268 281 342 212 229 226 228 237 215 195 219 255 260 278 315 328 321 298 263 228 209 181 167 183 171 177 221 215 181 198 200 165 209 222 205 203 209 212 182 172 211 225 227 215 216 245 233 245 248 233 242 197 176 232 224 218 229 236 230 186 149 157 174 175 166 169 165 156 148 140 137 134 131
271 275 278 281 288 293 299 305 306 308 308 301 296 273 246 264 276 319 317 269 249 228 231 234 215 227 248 253 265 280 293 283 287 291 242 203 182 178 175 159 180 204 196 188 197 202 206 222 217 195 193 199 205 185 181 207 220 233 224 208 247 242 257 288 277 255 205 185 235 225 214 227 239 237 196 156 158 176 182 171 170 162 150 149 147 144 139 138
270 271 277 282 286 293 301 303 304 306 304 296 267 229 262 292 298 311 314 278 277 237 215 228 224 229 245 253 256 245 242 249 263 279 238 197 185 182 176 178 189 193 200 200 196 196 210 223 203 187 186 192 208 197 188 209 223 226 216 198 238 241 227 274 281 275 222 208 222 212 210 236 256 264 229 205 172 171 184 177 170 162 155 157 157 151 147 147
271 271 276 280 286 296 302 303 304 308 315 305 271 263 295 308 299 296 305 270 281 259 212 217 214 219 234 239 224 198 219 232 232 262 242 196 179 176 185 189 185 200 214 208 205 207 216 206 183 185 195 193 204 204 190 205 228 231 221 201 229 241 217 213 270 313 268 237 221 157 175 270 260 251 230 244 174 166 179 171 166 165 151 145 143 143 145 148
272 272 274 280 286 295 302 304 305 318 326 306 285 298 321 320 308 287 197 321 277 267 215 209 202 224 231 220 194 192 222 235 223 243 243 198 179 173 189 189 186 210 214 211 211 212 227 211 176 187 205 197 202 210 195 192 210 242 233 206 223 240 229 221 308 352 326 260 233 131 150 261 266 229 216 217 134 163 172 159 158 153 132 131 135 139 139 139
273 270 270 279 282 295 305 303 306 324 321 300 304 327 329 331 323 267 173 344 278 261 190 174 174 212 212 182 171 186 249 265 231 229 241 217 189 175 184 181 188 210 206 208 220 209 215 210 183 189 200 200 207 218 200 177 184 238 218 187 219 236 228 256 291 330 268 257 249 156 170 243 288 225 216 182 142 162 162 151 154 146 136 140 139 142 144 143
274 266 266 274 276 294 302 288 307 320 311 296 327 330 330 339 331 226 166 322 262 222 167 151 177 180 167 159 158 152 203 257 228 213 226 217 190 173 186 182 176 203 193 188 222 195 183 199 198 192 194 200 209 217 200 167 173 229 192 169 213 224 201 221 244 238 228 260 282 192 158 154 247 233 218 148 144 154 143 142 150 143 139 140 141 147 149 149
276 266 265 268 268 275 275 282 302 303 282 312 326 326 330 333 319 216 129 284 234 145 145 185 211 173 150 155 154 164 234 245 204 192 201 207 192 169 191 192 174 191 190 189 212 184 175 197 200 190 195 208 208 211 200 176 192 232 202 189 213 198 178 199 216 238 242 283 282 241 155 127 259 261 177 127 149 151 139 146 149 142 141 143 146 147 143 143
282 266 260 261 266 267 268 278 279 271 294 316 322 323 324 322 314 96 125 261 226 172 134 123 189 171 135 145 154 196 244 257 222 180 172 200 204 177 195 188 171 191 204 201 204 188 185 197 198 192 200 209 205 208 204 196 211 225 202 218 224 167 171 198 202 223 217 115 248 235 176 146 266 270 133 125 158 156 144 148 148 144 145 144 141 139 138 135
292 269 259 256 258 265 276 279 269 274 302 314 320 323 320 316 13 88 217 250 294 277 90 114 206 149 140 149 159 204 229 248 255 211 139 187 189 169 183 166 158 184 207 209 211 220 207 193 199 202 201 204 204 207 209 206 209 204 197 225 246 154 145 202 198 169 153 236 247 232 195 158 216 265 179 150 192 159 143 138 145 144 139 138 138 137 136 132
300 275 258 248 248 263 287 281 273 290 311 319 324 324 323 18 46 190 211 292 322 314 59 164 205 140 151 161 159 194 223 249 253 234 171 182 165 163 170 172 165 157 194 212 218 243 245 206 205 207 193 192 201 209 215 209 202 204 203 198 227 301 356 235 333 120 179 237 250 229 197 168 187 247 245 312 295 160 148 148 153 151 143 141 140 135 135 133
305 283 258 246 247 254 257 263 285 306 318 325 327 325 42 66 324 225 257 332 340 291 340 296 206 157 164 168 159 179 208 238 243 225 195 176 173 185 174 177 173 158 194 207 200 232 250 233 216 208 197 188 194 206 214 212 200 206 212 162 169 246 221 201 230 197 203 242 250 199 154 175 212 231 315 320 297 170 161 158 155 153 148 145 139 133 134 132
304 287 261 247 248 252 255 268 287 301 314 323 322 346 88 124 226 226 262 312 342 312 339 350 322 191 166 168 171 178 199 224 206 214 219 178 163 201 211 194 161 151 179 180 172 204 238 261 234 209 204 192 195 196 196 209 198 199 204 159 156 169 167 199 209 208 221 240 256 194 149 192 253 301 337 315 256 158 143 147 148 147 142 138 133 130 131 131
301 285 261 251 251 255 261 271 281 288 306 317 319 88 118 216 239 263 256 287 317 322 345 339 315 266 173 182 183 169 191 230 199 199 223 182 162 198 216 206 168 143 143 159 173 186 203 242 230 204 197 186 196 201 186 181 181 201 195 141 159 172 159 192 190 182 214 223 280 327 145 193 263 320 323 320 123 118 98 99 121 123 122 123 122 124 127 127
300 279 262 260 259 260 263 268 273 274 287 313 12 131 201 211 252 286 284 339 319 325 340 327 308 268 176 187 186 168 178 214 200 206 221 180 173 188 198 206 192 157 136 165 196 190 198 234 236 206 209 192 192 198 179 167 183 207 165 132 187 188 147 154 183 173 172 175 310 5 97 236 122 13 354 37 89 104 112 116 116 116 121 122 119 122 125 121
295 278 267 262 263 266 268 270 267 256 252 273 143 196 218 228 272 267 337 346 318 322 335 332 330 4 163 183 189 183 186 186 177 189 239 181 173 186 193 203 193 174 161 173 207 178 181 242 256 199 218 217 191 184 178 178 186 185 175 183 195 163 131 121 191 191 109 131 222 89 120 187 130 51 27 75 91 101 116 121 122 123 124 123 120 124 123 117
296 282 264 257 264 268 271 272 248 224 213 207 210 210 231 253 268 284 316 325 313 316 335 347 351 360 21 170 208 184 187 191 164 171 236 213 188 192 194 205 192 181 172 164 219 204 153 244 266 195 211 228 196 183 192 186 166 159 198 199 144 122 116 105 148 339 68 138 232 240 149 166 165 181 112 109 107 113 121 122 123 121 118 118 118 122 119 114
294 283 261 264 276 275 266 255 212 192 188 205 227 234 241 244 275 303 307 309 307 311 335 348 305 350 30 14 340 240 180 192 177 172 202 225 234 204 186 202 202 189 177 159 192 267 128 239 277 211 202 226 183 175 203 206 181 172 184 168 126 156 207 117 150 163 142 162 156 49 170 177 184 194 154 137 134 132 124 123 127 123 117 118 119 121 117 114
270 279 264 292 330 321 244 225 189 172 203 208 216 232 255 271 278 280 277 279 287 294 303 260 220 333 19 155 313 338 279 211 190 178 175 192 236 218 188 191 202 196 187 163 179 249 134 134 282 257 216 226 179 174 202 212 239 108 143 146 151 165 169 170 167 148 156 174 110 113 179 219 235 203 167 156 155 150 140 134 131 121 112 117 122 122 119 116
248 263 283 335 350 15 183 187 176 175 220 210 221 246 269 287 279 270 270 269 271 274 276 253 201 256 315 280 270 288 324 316 189 176 185 188 211 235 204 195 193 196 192 173 175 218 181 149 252 293 304 224 199 200 187 183 186 156 143 168 176 161 147 161 171 133 136 149 137 137 190 251 250 205 176 160 151 150 147 137 127 119 114 113 115 115 114 116
264 261 290 353 350 17 152 158 177 191 205 223 244 253 261 276 278 282 285 282 277 265 262 261 241 214 222 307 295 258 301 320 229 184 218 195 183 227 216 202 188 188 192 188 184 188 176 159 198 277 325 198 234 245 123 154 211 182 163 179 174 156 137 134 211 264 129 136 156 153 182 250 256 197 158 149 141 138 135 127 121 120 121 118 115 115 114 117
293 280 283 345 343 324 158 158 194 181 199 225 226 246 257 265 273 280 285 284 282 271 255 247 236 207 152 209 251 256 251 283 246 201 216 205 192 222 223 203 192 188 177 175 196 188 147 127 172 243 240 213 255 275 135 159 221 197 177 181 156 138 129 139 189 246 181 142 138 122 148 238 271 247 149 140 134 129 123 120 118 118 121 118 114 113 114 121
257 286 288 333 342 306 171 176 187 173 216 236 234 248 254 263 272 273 277 278 279 280 271 252 237 205 157 205 221 234 245 235 229 222 222 235 236 267 248 189 181 182 163 159 192 187 149 131 166 259 293 292 303 322 1 134 134 140 209 173 140 149 166 164 173 180 175 170 127 95 131 241 281 257 142 132 126 128 127 123 121 120 120 118 121 123 120 121
270 273 276 336 12 175 181 188 175 181 219 236 246 254 257 262 263 262 271 276 276 289 290 275 238 175 177 198 196 208 224 209 245 248 238 250 251 321 7 345 172 155 155 182 184 182 197 177 124 119 315 320 330 342 342 352 61 122 216 190 154 155 157 166 155 139 190 218 155 143 177 236 235 139 131 129 129 131 132 130 126 124 125 127 130 127 114 101
293 268 240 128 137 189 230 146 118 177 232 248 260 264 262 263 262 257 264 271 264 264 278 277 249 163 163 162 156 244 217 171 228 290 306 309 284 18 19 339 318 127 149 201 179 168 190 171 123 138 165 191 199 193 237 289 332 330 285 236 179 153 151 165 138 145 202 233 111 143 165 149 139 135 132 133 135 134 135 134 131 130 135 136 130 120 103 92
307 306 301 96 142 185 287 278 143 178 255 279 271 262 252 259 276 264 256 264 259 247 250 265 275 115 121 123 117 278 255 174 279 307 305 316 303 308 4 336 328 94 116 177 164 139 138 154 151 151 163 183 184 185 255 321 61 350 326 319 270 154 128 120 108 162 184 129 48 189 148 136 147 147 140 142 142 140 141 139 136 138 139 133 124 114 101 96
284 319 330 347 289 197 239 246 209 206 241 275 294 288 275 281 299 288 260 266 273 257 234 250 308 75 94 91 108 210 307 350 342 317 296 288 294 314 341 336 329 29 72 96 114 100 101 161 185 153 157 174 140 64 350 16 90 83 334 330 301 176 110 107 142 199 161 113 25 231 144 137 159 161 150 151 148 145 147 144 140 141 136 126 118 111 104 102
298 323 240 292 281 223 206 248 255 248 251 260 275 292 291 291 297 295 285 303 320 321 44 33 359 40 72 63 78 158 348 9 343 321 324 339 350 346 343 329 321 359 58 72 42 90 114 168 219 137 117 111 90 58 20 54 89 8 8 351 315 257 134 137 181 192 170 147 174 182 159 150 163 166 157 156 150 146 146 143 139 137 129 121 117 114 111 109
322 313 248 219 239 246 250 269 275 266 256 252 255 264 272 279 285 286 290 325 332 325 44 90 343 11 28 38 69 110 147 82 321 297 311 353 12 22 10 342 317 334 36 66 31 71 106 90 303 116 103 86 80 71 53 58 60 357 357 8 350 19 124 127 130 157 172 168 160 161 157 150 155 157 150 145 140 136 136 137 138 139 134 126 122 121 119 117
332 312 277 258 260 256 250 255 251 239 248 250 249 259 264 272 289 301 296 262 270 295 359 77 325 356 360 6 72 134 206 163 205 248 229 65 22 37 65 69 302 318 2 65 46 32 80 88 337 71 94 67 71 79 64 51 63 24 352 14 20 42 84 95 98 102 100 118 132 133 125 107 123 132 125 125 129 131 135 140 141 141 138 130 128 128 123 118
311 285 275 282 289 283 277 269 222 177 235 257 248 286 302 285 303 324 305 256 224 265 336 347 325 345 354 349 9 238 252 235 227 227 196 166 144 76 113 145 263 309 348 49 52 29 75 103 13 58 91 15 19 77 72 45 48 25 352 5 13 34 86 100 133 134 125 125 125 122 121 128 132 126 124 130 138 140 142 143 140 139 136 130 130 128 121 117
321 294 283 293 288 299 341 334 307 158 198 238 267 307 308 288 293 320 312 299 304 343 9 1 332 322 322 316 288 241 232 254 254 242 183 137 107 97 123 234 309 315 339 54 60 45 97 111 73 82 99 9 351 81 81 49 38 356 310 338 342 344 72 69 38 100 131 137 140 144 153 153 140 132 133 138 141 142 141 138 137 139 131 123 122 118 112 111